📊 Raw Sensor Data
Showing records 51301 to 51325 of 85,146 total
| ID | Distance (ft) | Battery V | Battery A | Int Temp (°F) | Int Humid (%) | Ext Temp (°F) | Solar V | RSSI | SNR | Time Stamp |
|---|---|---|---|---|---|---|---|---|---|---|
| 33858 | 15.0 | 4.08 | 6 | 66 | 37 | 60 | 5.10 | -73 | 8 | 03/02/2025 12:00 PM |
| 33857 | 15.0 | 3.97 | 6 | 65 | 37 | 62 | 5.10 | -73 | 7 | 03/02/2025 11:45 AM |
| 33856 | 14.9 | 3.97 | 6 | 65 | 37 | 60 | 5.10 | -73 | 8 | 03/02/2025 11:30 AM |
| 33855 | 15.1 | 3.97 | 0 | 65 | 36 | 59 | 5.10 | -75 | 8 | 03/02/2025 11:15 AM |
| 33854 | 15.0 | 3.97 | 6 | 65 | 36 | 62 | 5.10 | -75 | 8 | 03/02/2025 11:00 AM |
| 33853 | 15.1 | 3.97 | 5 | 62 | 36 | 57 | 5.10 | -76 | 8 | 03/02/2025 10:45 AM |
| 33852 | 14.9 | 3.97 | 6 | 60 | 37 | 60 | 5.10 | -76 | 7 | 03/02/2025 10:30 AM |
| 33851 | 15.0 | 3.97 | 6 | 59 | 37 | 56 | 5.10 | -75 | 8 | 03/02/2025 10:15 AM |
| 33850 | 15.0 | 4.13 | 7 | 60 | 36 | 61 | 5.10 | -75 | 8 | 03/02/2025 10:00 AM |
| 33849 | 15.1 | 4.12 | 0 | 60 | 35 | 59 | 5.10 | -74 | 8 | 03/02/2025 09:45 AM |
| 33848 | 15.0 | 3.97 | 0 | 55 | 37 | 56 | 5.10 | -77 | 8 | 03/02/2025 09:30 AM |
| 33847 | 14.9 | 4.13 | 6 | 53 | 37 | 51 | 5.10 | -74 | 8 | 03/02/2025 09:00 AM |
| 33846 | 14.9 | 4.09 | 7 | 54 | 36 | 55 | 5.10 | -74 | 7 | 03/02/2025 08:45 AM |
| 33845 | 14.9 | 3.97 | 7 | 52 | 36 | 52 | 5.10 | -74 | 8 | 03/02/2025 08:30 AM |
| 33844 | 14.9 | 3.96 | 7 | 51 | 36 | 54 | 5.10 | -73 | 8 | 03/02/2025 08:15 AM |
| 33843 | 14.9 | 3.96 | 7 | 49 | 37 | 52 | 5.10 | -73 | 8 | 03/02/2025 08:00 AM |
| 33842 | 14.8 | 4.12 | 7 | 47 | 38 | 50 | 5.10 | -73 | 8 | 03/02/2025 07:45 AM |
| 33841 | 14.8 | 3.98 | 5 | 47 | 37 | 48 | 4.50 | -73 | 8 | 03/02/2025 07:30 AM |
| 33840 | 14.8 | 3.99 | 10 | 48 | 37 | 49 | 4.50 | -73 | 8 | 03/02/2025 07:15 AM |
| 33839 | 14.8 | 3.99 | 9 | 47 | 37 | 48 | 4.50 | -73 | 8 | 03/02/2025 07:00 AM |
| 33838 | 14.9 | 3.91 | 0 | 47 | 38 | 48 | 4.50 | -72 | 8 | 03/02/2025 06:45 AM |
| 33837 | 14.8 | 3.90 | -8 | 47 | 38 | 47 | 2.20 | -73 | 8 | 03/02/2025 06:30 AM |
| 33836 | 14.9 | 3.90 | -5 | 47 | 38 | 47 | 0.30 | -73 | 8 | 03/02/2025 06:15 AM |
| 33835 | 14.8 | 3.90 | -5 | 47 | 38 | 48 | 0.00 | -71 | 7 | 03/02/2025 06:00 AM |
| 33834 | 14.9 | 3.96 | -5 | 46 | 38 | 47 | 0.00 | -72 | 8 | 03/02/2025 05:45 AM |